Flag for Germany Weather past 2 weeks in Naumburg (Saale), Saxony-Anhalt, Germany

Now
52 °F

Passing clouds.


Feels Like: 52 °F
Forecast: 42 / 61 °F
Wind: 2 mph from West

Location: Gera-Leumnitz

Current Time: Sep 23, 2014 at 8:21:51 PM

Latest Report: Sep 23, 2014 at 8:00 PM


Visibility: 38 mi

Pressure: 30.11 "Hg

Humidity: 69%

Dew point: 42 °F

Location of Naumburg (Saale)Location

Historic Weather in Naumburg (Saale) — Graph

°F

Naumburg (Saale) temperature yesterday

Maximum temperature yesterday: 53 °F (at 12:00 AM)
Minimum temperature yesterday: 46 °F (at 2:00 PM)
Average temperature yesterday: 50 °F

Past Weeks' High & Low Weather Summary

 TemperatureHumidityPressure
High74 °F (Sep 19, 2:00 PM)99% (Sep 12, 1:00 PM)30.16 "Hg (Sep 12, 1:00 PM)
Low46 °F (Sep 22, 2:00 PM)52% (Sep 23, 4:00 PM)29.88 "Hg (Sep 19, 3:00 PM)
Average59 °F87%30.01 "Hg
* Reported Sep 8 7:00 PM — Sep 23 7:00 PM, Naumburg (Saale), Weather by CustomWeather, © 2014

Note: Actual official high and low records may vary slightly from our data, if they occured in-between our weather recording intervals... More about our weather records

Advertising

Naumburg (Saale) weather history for previous 24 hours

 ConditionsComfort  
Time TempWeatherWind HumidityBarometerVisibility
7:00 PM
Sep 23
53 °FPartly sunny.2 mph64%30.10 "Hg43 mi
6:00 PM55 °FPartly sunny.5 mph57%30.10 "Hg40 mi
5:00 PM56 °FScattered clouds.5 mph55%30.10 "Hg40 mi
4:00 PM56 °FScattered clouds.3 mph52%30.12 "Hg37 mi
3:00 PM56 °FScattered clouds.5 mph53%30.13 "Hg40 mi
2:00 PM56 °FScattered clouds.5 mph58%30.14 "Hg40 mi
1:00 PM54 °FPartly sunny.3 mph61%30.14 "Hg37 mi
12:00 PM52 °FPartly sunny.5 mph68%30.16 "Hg31 mi
11:00 AM50 °FOvercast.5 mph79%30.15 "Hg25 mi
10:00 AM49 °FOvercast.5 mph83%30.15 "Hg25 mi
9:00 AM48 °FOvercast.5 mph87%30.13 "Hg22 mi
8:00 AM48 °FOvercast.5 mph89%30.12 "Hg17 mi
7:00 AM48 °FOvercast.3 mph91%30.10 "Hg12 mi
6:00 AM48 °FLow clouds.5 mph92%30.08 "Hg19 mi
5:00 AM48 °FPassing clouds.5 mph94%30.07 "Hg9 mi
4:00 AM48 °FDrizzle. Low clouds.5 mph95%30.07 "Hg6 mi
3:00 AM48 °FLight freezing rain. Low clouds.6 mph95%30.06 "Hg4 mi
2:00 AM48 °FLight freezing rain. Low clouds.5 mph94%30.06 "Hg2 mi
1:00 AM48 °FOvercast.6 mph90%30.04 "Hg17 mi
12:00 AM48 °FDrizzle. Low clouds.6 mph93%30.03 "Hg9 mi
11:00 PM
Sep 22
47 °FDrizzle. Low clouds.5 mph95%30.03 "Hg6 mi
10:00 PM48 °FLight rain. Overcast.5 mph94%30.03 "Hg6 mi
9:00 PM47 °FLight rain. Low clouds.5 mph92%30.03 "Hg10 mi
8:00 PM48 °FLight rain. Low clouds.8 mph87%30.01 "Hg9 mi
Weather by CustomWeather, © 2014

See weather overviewHow to use our weather pages